Showing default

JAS 1 (FUJI 1), 16909

Orbit data source: Space-Track

JAS 1 (FUJI 1), 16909 is a payload satellite owned by JARL (JP) in LEO that was launched on Tue, 12 Aug 1986 UTC via an H-1 launch vehicle from the Tanegashima Space Center (TNSTA). Payload-class satellites include a variety of spacecraft equipped with specific instruments for various scientific and technological missions. These include communications satellites like Starlink; space stations such as the ISS; scientific satellites like the Hubble; Earth observation satellites from companies like Planet Labs, Umbra, and HawkEye 360; GPS; miniature CubeSats for education and research; and military/defense satellites.

Loading next visibility...
Identifier
16909, 1986-061B
Orbit
LEO
Country
Flag of JPJP / JPN
Related business
Manufacturer
JARL
Mission
Non-operational Amateur Communications
Bus & Motor
JAS, Unknown motor
Mass
50 kg wet, 50 kg dry
Launch date (UTC)
1986-08-12 (40 years ago)
Launch vehicle
H-1
Launch site
Tanegashima Space Center (TNSTA)
Object type
Payload
Rocket body
Debris
Shape & HBR
Poly, 0.3 m
Radar Cross Section
0.248 m², Medium (>0.1 m² and < 1m²)

Expand to show TLE details & history
Last TLE update: 16 hours ago

TLE from 16 hours ago
0 JAS 1 (FUJI 1)
1 16909U 86061B   26072.30997579 -.00000095  00000-0  18740-4 0  9991
2 16909  50.0143  88.1251 0011074 277.4582 175.8086 12.44485707800154
Epoch: 2026-03-13T07:26Z
TLE epoch observation values (Epoch: 2026-03-13T07:26:21.908Z)
Latitude
50.04086°
Longitude
-99.31798°
Altitude
1,501.991 km
Speed
7.115 km/s
True Right ascension
12h 12m 52s
True Declination
49° 53' 15"
Sunlit
Object was in full shadow at epoch
Visualization orbit readout
Latitude
Unknown
Longitude
Unknown
Altitude
Unknown
Speed
Unknown
Apparent Right ascension
Unknown
Apparent Declination
Unknown
Sunlit
N/A
Visualization observer readout
Local Sidereal Time
03:42:22
Azimuth
Unknown
Elevation
Unknown
Doppler factor
Unknown
Orbital elements
Apogee altitude
1,497.03 km
Perigee altitude
1,479.607 km
Semi-major axis
7,866.455 km
Eccentricity
0.00111
Inclination
50.0143°
RAAN
88.1251°
Arg. of periapsis
277.4582°
True anomaly
175.81786°
Mean anomaly
175.8086°
Eccentric anomaly
175.81323°
Mean motion
3.11082 °/min
Orbital period
115.73 mins
BSTAR
0.00001874
Loading maneuver chart data...
Computing Atmospheric mass density...
Loading historical data...
Loading historical data...
Loading historical data...
Loading historical data...
Loading historical data...
Loading historical data...
Loading historical data...
Other satellites on launch #61 in the year 1986 (1986-08-12 UTC)

Documentation

Showing up to 5 results
|